Regional Weather Roundup
Issued by NWS Kansas City/Pleasant Hill, MO

Home | Current Version | Previous Version | Graphics & Text | Print | Product List | Glossary Off
Versions: 1 2 3 4 5 6 7 8 9 10 11 12 13 14 15 16 17 18 19 20 21 22 23 24 25 26 27 28 29 30 31 32 33 34 35 36 37 38 39 40 41 42 43 44 45 46 47 48 49 50

067
ASUS43 KEAX 210110
RWREAX

WEATHER ROUNDUP FOR EASTERN KANSAS AND NORTHWEST MISSOURI
NATIONAL WEATHER SERVICE KANSAS CITY/PLEASANT HILL MO
800 PM CDT THU JUL 20 2017

KSZ040-057-103>105-MOZ028-029-037-043-210200-
...KANSAS CITY METROPOLITAN AREA...

CITY           SKY/WX    TMP DP  RH WIND       PRES   REMARKS
K.C. INTL      PTCLDY    90  78  68 S8        29.95S HX 104
K.C. DOWNTOWN  CLEAR     93  75  55 S9        29.93S HX 104
LEES SUMMIT    CLEAR     92  76  59 S12       29.97S HX 104
OLATHE - IXD   CLEAR     90  75  61 S9        29.97R HX 100
OLATHE - OJC   CLEAR     88  77  69 S9        29.97R HX 100
LAWRENCE       CLEAR     92  77  61 SE8       29.93S HX 105

$$

MOZ001>008-011>017-020>025-030>033-038>040-044>046-053-054-210200-
...NORTHERN AND CENTRAL MISSOURI...

CITY           SKY/WX    TMP DP  RH WIND       PRES   REMARKS
ST. JOSEPH     CLEAR     89  79  72 S8        29.92F HX 104
MOSBY          CLEAR     91  73  55 S5        29.94S HX 100
WARRENSBURG    CLEAR     90  73  58 S5        29.96S HX  98
WHITEMAN AFB   CLEAR     89  78  69 S8        29.96S HX 104
CLINTON        CLEAR     90  77  66 SW3       29.98F HX 102
SEDALIA        NOT AVBL
WARSAW         NOT AVBL
CHILLICOTHE      N/A     90  81  74 S6        29.94F HX 109
KIRKSVILLE     CLEAR     89  79  72 SW7       29.96S HX 104

$$

MOZ041-047>049-056>058-063>065-088>090-097-210200-
...EASTERN AND SOUTHERN MISSOURI...

CITY           SKY/WX    TMP DP  RH WIND       PRES   REMARKS
ST. LOUIS INTL PTCLDY    97  68  38 W9        29.96S HX 102
SPIRIT OF STL  PTCLDY    89  80  74 CALM      29.95S HX 106
COLUMBIA       CLEAR     90  75  61 S5        29.98S HX 100
JEFFERSON CITY CLEAR     93  76  57 CALM      29.95F HX 105
ROLLA          CLEAR     87  75  67 S5        29.99F HX  96
OSAGE BEACH    CLEAR     90  74  59 CALM      29.99S HX  99
SPRINGFIELD    CLEAR     90  73  57 SW5       30.02F HX  98
BRANSON        PTCLDY    90  72  55 CALM      30.05F HX  96
JOPLIN         CLEAR     91  73  55 SW8       30.01S HX  99
WEST PLAINS    CLEAR     88  71  57 S5        30.05S HX  94

$$

IAZ060-094-KSZ022-034>040-054-083-096-NEZ052-066-093-210200-
...KANSAS...SOUTHEAST NEBRASKA AND IOWA...

CITY           SKY/WX    TMP DP  RH WIND       PRES   REMARKS
TOPEKA         CLEAR     94  72  48 S9        29.92S HX 102
MANHATTAN      CLEAR     96  67  38 S8        29.89S HX 100
EMPORIA        CLEAR     92  69  47 SE9       29.94S HX  97
CHANUTE        CLEAR     92  71  50 S13       29.97S HX  98
WICHITA        PTCLDY    94  67  41 SE15      29.92S HX  97
OMAHA          MOCLDY    91  77  63 E8        29.90S HX 104
LINCOLN        CLOUDY    92  75  57 SE7       29.89F HX 103
FALLS CITY     CLOUDY    88  78  72 SE7       29.90F HX 101
LAMONI         CLEAR     89  80  74 S5        29.93F HX 106
DES MOINES     CLOUDY    95  73  48 W3        29.90F HX 104

$$





USA.gov is the U.S. government's official web portal to all federal, state and local government web resources and services.